Tracking 19484 objects as of 18-Jan-2019
HD Live streaming from Space Station
objects crossing your sky now

FENGYUN 1C DEB

Track FENGYUN 1C DEB now!
10-day predictions


NORAD ID: 30331
Int'l Code: 1999-025AAS
Perigee: 844.4 km
Apogee: 990.4 km
Inclination: 99.3 °
Period: 103.2 minutes
Semi major axis: 7288 km
RCS: 0.0259 m2 (small)
Launch date: May 10, 1999
Source: People's Republic of China (PRC)
Launch site: Taiyaun Space Center, China (TSC)

Note: This is SATELLITE DEBRIS
aabbcc
Your satellite tracking list
Your tracking list is empty




NASA's NSSDC Master Catalog

Two Line Element Set (TLE):
1 30331U 99025AAS 19018.03567449  .00000033  00000-0  55018-4 0  9991
2 30331  99.2526  48.2936 0100205  64.2828 316.7125 13.95259191609606
Source of the keplerian elements: AFSPC